Erie, CO

3:00 PM MDT on August 19, 2017 (GMT -0600)
Erie Municipal Airport

Weather History for KEIK - April, 2014

Change the Weather History Date:

Saturday, April 12, 2014

  Actual Average (KBJC) Record (KBJC)
Temperature  
Mean Temperature 55 °F -  
Max Temperature 72 °F 56 °F 78 °F (2003)
Min Temperature 38 °F 34 °F 1 °F (1997)
Degree Days  
Heating Degree Days 10    
Growing Degree Days 5 (Base 50)    
Moisture  
Dew Point 27 °F    
Average Humidity 38    
Maximum Humidity 59    
Minimum Humidity 14    
Precipitation  
Precipitation 0.00 in - - ()
Sea Level Pressure  
Sea Level Pressure 29.74 in    
Wind  
Wind Speed 4 mph (South)    
Max Wind Speed 25 mph    
Max Gust Speed 34 mph    
Visibility 10 miles    
Events      
Averages and records for this station are not official NWS values.
T = Trace of Precipitation, MM = Missing Value Source: NWS Daily Summary

Daily Weather History Graph

Daily Weather History Graph

Search for Another Location

Airport or City:

Trip Planner

Search our weather history database for the weather conditions in past years. The results will help you decide how hot, cold, wet, or windy it might be!

Date:

Astronomy

Apr. 12, 2014 Rise Set
Actual Time 6:26 AM MDT 7:35 PM MDT
Civil Twilight 5:58 AM MDT 8:03 PM MDT
Nautical Twilight 5:25 AM MDT 8:37 PM MDT
Astronomical Twilight 4:51 AM MDT 9:11 PM MDT
Moon 5:16 PM MDT (4/12) 4:54 AM MDT (4/12)
Length of Visible Light 14h 04m
Length of Day
13h 08m
Waxing Gibbous, 93% of the Moon is Illuminated
Apr 12
Waxing Gibbous
Apr 15
Full
Apr 22
Last Quarter
Apr 29
New
May 6
First Quarter

Hourly Weather History & Observations

Time (MDT) Temp. Windchill Dew Point Humidity Pressure Visibility Wind Dir Wind Speed Gust Speed Precip Events Conditions
12:16 AM 48.9 °F - 23.9 °F 38% 29.79 in 10.0 mi SSW 4.6 mph - N/A   Clear
12:36 AM 49.8 °F - 22.3 °F 34% 29.79 in 10.0 mi Calm Calm - N/A   Clear
12:56 AM 46.2 °F 45.0 °F 25.5 °F 44% 29.79 in 10.0 mi SSE 3.5 mph - N/A   Clear
1:16 AM 46.0 °F - 24.6 °F 43% 29.79 in 10.0 mi Calm Calm - N/A   Clear
1:36 AM 43.3 °F 41.7 °F 25.0 °F 48% 29.79 in 10.0 mi NNW 3.5 mph - N/A   Clear
1:56 AM 41.5 °F - 26.2 °F 55% 29.78 in 10.0 mi Calm Calm - N/A   Clear
2:16 AM 40.8 °F 38.8 °F 27.1 °F 58% 29.79 in 10.0 mi South 3.5 mph - N/A   Clear
2:36 AM 41.4 °F - 27.0 °F 57% 29.78 in 10.0 mi Calm Calm - N/A   Clear
2:56 AM 40.3 °F 38.2 °F 26.4 °F 58% 29.78 in 10.0 mi SSW 3.5 mph - N/A   Clear
3:16 AM 38.8 °F 36.5 °F 25.2 °F 58% 29.78 in 10.0 mi South 3.5 mph - N/A   Clear
3:36 AM 41.0 °F 38.0 °F 25.2 °F 53% 29.78 in 10.0 mi SW 4.6 mph - N/A   Clear
3:56 AM 42.1 °F 39.2 °F 25.0 °F 51% 29.77 in 10.0 mi SSW 4.6 mph - N/A   Clear
4:16 AM 40.5 °F - 25.2 °F 54% 29.77 in 10.0 mi Calm Calm - N/A   Clear
4:36 AM 40.5 °F 38.4 °F 27.0 °F 59% 29.77 in 10.0 mi South 3.5 mph - N/A   Clear
4:56 AM 40.5 °F - 26.6 °F 58% 29.77 in 10.0 mi Calm Calm - N/A   Clear
5:16 AM 41.7 °F 39.8 °F 26.8 °F 55% 29.76 in 10.0 mi South 3.5 mph - N/A   Clear
5:36 AM 41.7 °F - 25.3 °F 52% 29.77 in 10.0 mi Calm Calm - N/A   Clear
5:56 AM 42.8 °F - 26.6 °F 53% 29.77 in 10.0 mi Calm Calm - N/A   Clear
6:16 AM 41.5 °F 38.6 °F 27.7 °F 58% 29.76 in 10.0 mi South 4.6 mph - N/A   Clear
6:36 AM 40.1 °F 36.1 °F 26.4 °F 58% 29.77 in 10.0 mi SW 5.8 mph - N/A   Clear
6:56 AM 43.0 °F - 25.7 °F 51% 29.77 in 10.0 mi Calm Calm - N/A   Clear
7:16 AM 45.1 °F - 27.0 °F 49% 29.78 in 10.0 mi Calm Calm - N/A   Clear
7:36 AM 46.4 °F 45.2 °F 31.3 °F 56% 29.78 in 10.0 mi SSE 3.5 mph - N/A   Clear
7:56 AM 50.9 °F - 30.4 °F 45% 29.79 in 10.0 mi Calm Calm - N/A   Clear
8:16 AM 50.9 °F - 29.7 °F 44% 29.79 in 10.0 mi ESE 3.5 mph - N/A   Clear
8:36 AM 51.8 °F - 32.2 °F 47% 29.79 in 10.0 mi Calm Calm - N/A   Clear
8:56 AM 52.7 °F - 30.7 °F 43% 29.79 in 10.0 mi Calm Calm - N/A   Clear
9:16 AM 53.1 °F - 30.6 °F 42% 29.79 in 10.0 mi Calm Calm - N/A   Clear
9:36 AM 54.5 °F - 28.8 °F 37% 29.79 in 10.0 mi Calm Calm - N/A   Clear
9:56 AM 56.3 °F - 29.7 °F 36% 29.79 in 10.0 mi Calm Calm - N/A   Clear
10:16 AM 57.2 °F - 31.6 °F 38% 29.79 in 10.0 mi Calm Calm - N/A   Clear
10:36 AM 58.6 °F - 31.1 °F 35% 29.78 in 10.0 mi North 3.5 mph - N/A   Clear
10:56 AM 59.4 °F - 29.8 °F 33% 29.78 in 10.0 mi Calm Calm - N/A   Clear
11:16 AM 61.5 °F - 30.2 °F 31% 29.77 in 10.0 mi Calm Calm - N/A   Clear
11:36 AM 64.6 °F - 30.7 °F 28% 29.75 in 10.0 mi NNE 3.5 mph - N/A   Clear
11:56 AM 65.8 °F - 28.0 °F 24% 29.74 in 5.0 mi North 3.5 mph - N/A   Haze
12:16 PM 66.0 °F - 28.6 °F 25% 29.73 in 3.0 mi NNE 6.9 mph - N/A   Haze
12:36 PM 67.5 °F - 28.8 °F 24% 29.72 in 10.0 mi NNE 5.8 mph - N/A   Clear
12:56 PM 68.0 °F - 26.2 °F 21% 29.72 in 10.0 mi ENE 5.8 mph - N/A   Clear
1:16 PM 68.5 °F - 27.3 °F 21% 29.71 in 10.0 mi NNE 6.9 mph - N/A   Clear
1:36 PM 70.2 °F - 26.6 °F 20% 29.70 in 10.0 mi NE 8.1 mph - N/A   Clear
1:56 PM 69.8 °F - 21.7 °F 16% 29.70 in 10.0 mi NNE 6.9 mph - N/A   Clear
2:16 PM 72.3 °F - 21.4 °F 15% 29.70 in 10.0 mi East 4.6 mph - N/A   Clear
2:36 PM 69.8 °F - 18.5 °F 14% 29.70 in 10.0 mi NE 4.6 mph - N/A   Clear
2:56 PM 70.7 °F - 19.6 °F 14% 29.69 in 10.0 mi NNE 3.5 mph - N/A   Clear
3:16 PM 69.4 °F - 18.5 °F 14% 29.69 in 10.0 mi Calm Calm - N/A   Scattered Clouds
3:36 PM 68.5 °F - 19.8 °F 16% 29.69 in 10.0 mi South 15.0 mph 20.7 mph N/A   Mostly Cloudy
3:56 PM 68.2 °F - 19.8 °F 16% 29.68 in 10.0 mi Calm Calm - N/A   Overcast
4:16 PM 68.9 °F - 22.5 °F 17% 29.68 in 10.0 mi SW 5.8 mph - N/A   Scattered Clouds
4:36 PM 68.5 °F - 21.7 °F 17% 29.67 in 10.0 mi SSW 8.1 mph - N/A   Scattered Clouds
4:56 PM 70.0 °F - 21.9 °F 16% 29.66 in 10.0 mi SSE 13.8 mph 17.3 mph N/A   Clear
5:16 PM 68.4 °F - 22.6 °F 18% 29.66 in 10.0 mi SSW 5.8 mph - N/A   Clear
5:36 PM 67.5 °F - 24.1 °F 19% 29.65 in 10.0 mi SSW 8.1 mph - N/A   Scattered Clouds
5:56 PM 66.9 °F - 26.4 °F 22% 29.65 in 10.0 mi SW 3.5 mph - N/A   Scattered Clouds
6:16 PM 67.1 °F - 25.3 °F 21% 29.64 in 10.0 mi SW 4.6 mph - N/A   Clear
6:36 PM 66.4 °F - 24.6 °F 21% 29.64 in 10.0 mi South 3.5 mph - N/A   Clear
6:56 PM 65.1 °F - 24.6 °F 22% 29.64 in 10.0 mi SSW 4.6 mph - N/A   Clear
7:16 PM 64.0 °F - 25.0 °F 23% 29.64 in 10.0 mi WSW 5.8 mph - N/A   Clear
7:36 PM 62.8 °F - 23.2 °F 22% 29.64 in 10.0 mi West 5.8 mph - N/A   Clear
7:56 PM 60.8 °F - 25.5 °F 26% 29.64 in 10.0 mi South 3.5 mph - N/A   Clear
8:16 PM 57.4 °F - 30.0 °F 35% 29.65 in 10.0 mi SSW 3.5 mph - N/A   Clear
8:36 PM 54.7 °F - 32.2 °F 42% 29.65 in 10.0 mi SW 4.6 mph - N/A   Clear
8:56 PM 57.6 °F - 32.9 °F 39% 29.70 in 10.0 mi North 24.2 mph 33.4 mph N/A   Scattered Clouds
9:16 PM 55.8 °F - 34.5 °F 45% 29.71 in 10.0 mi NNE 23.0 mph 28.8 mph N/A   Scattered Clouds
9:36 PM 55.0 °F - 35.2 °F 47% 29.71 in 10.0 mi NNE 25.3 mph 34.5 mph N/A   Mostly Cloudy
9:56 PM 53.2 °F - 35.6 °F 51% 29.73 in 10.0 mi North 17.3 mph 26.5 mph N/A   Overcast
10:16 PM 53.2 °F - 35.1 °F 50% 29.75 in 10.0 mi North 18.4 mph 26.5 mph N/A   Overcast
10:36 PM 52.9 °F - 34.7 °F 50% 29.77 in 10.0 mi North 19.6 mph 25.3 mph N/A   Overcast
10:56 PM 52.2 °F - 34.9 °F 52% 29.76 in 10.0 mi North 18.4 mph 23.0 mph N/A   Overcast
11:16 PM 51.4 °F - 34.9 °F 53% 29.76 in 10.0 mi North 13.8 mph - N/A   Overcast
11:36 PM 50.9 °F - 35.1 °F 55% 29.76 in 10.0 mi North 15.0 mph - N/A   Overcast
11:56 PM 50.9 °F - 32.9 °F 50% 29.78 in 10.0 mi NNE 13.8 mph - N/A   Overcast